STARLINK-32644, 62151

Orbit data source: Space-Track

STARLINK-32644, 62151 is a payload satellite owned by SpaceX/Seattle (US) in LEO that was launched on Sat, 30 Nov 2024 UTC via an FALCON 9 launch vehicle from the Air Force Eastern Test Range (AFETR). Payload-class satellites include a variety of spacecraft equipped with specific instruments for various scientific and technological missions. These include communications satellites like Starlink; space stations such as the ISS; scientific satellites like the Hubble; Earth observation satellites from companies like Planet Labs, Umbra, and HawkEye 360; GPS; miniature CubeSats for education and research; and military/defense satellites.

Loading next visibility...
Identifier
62151, 2024-224N
Orbit
LEO
Country
Flag of USUS
Related business
Manufacturer
SpaceX/Seattle
Mission
Operational Commercial Communications
Bus & Motor
STARLINK V2M, Unknown motor
Mass
730 kg wet, ~700 kg dry
Launch date (UTC)
2024-11-30 (2 years ago)
Launch vehicle
FALCON 9
Launch site
Air Force Eastern Test Range (AFETR)
Object type
Payload
Rocket body
Debris
Shape & HBR
Box + 2 Pan, 17.7 m
Radar Cross Section
33.884 m², Large (>1 m²)

Expand to show TLE details & history
Last TLE update: 11 hours ago

TLE from 11 hours ago
0 STARLINK-32644
1 62151U 24224N   26171.38769969  .00033025  00000-0  12044-2 0  9999
2 62151  43.0012 298.3509 0001320 264.6852  95.3849 15.27575309 88189
Epoch: 2026-06-20T09:18Z
TLE epoch observation values (Epoch: 2026-06-20T09:18:17.253Z)
Latitude
-0.00001°
Longitude
-109.82405°
Altitude
482.924 km
Speed
7.626 km/s
True Right ascension
19h 53m 24s
True Declination
0° 00' 00"
Sunlit
Object was in full shadow at epoch
Visualization orbit readout
Latitude
Unknown
Longitude
Unknown
Altitude
Unknown
Speed
Unknown
Apparent Right ascension
Unknown
Apparent Declination
Unknown
Sunlit
N/A
Visualization observer readout
Local Sidereal Time
07:18:47
Azimuth
Unknown
Elevation
Unknown
Doppler factor
Unknown
Orbital elements
Apogee altitude
485.914 km
Perigee altitude
484.102 km
Semi-major axis
6,863.145 km
Eccentricity
0.00013
Inclination
43.0012°
RAAN
298.3509°
Arg. of periapsis
264.6852°
True anomaly
95.39996°
Mean anomaly
95.3849°
Eccentric anomaly
95.39243°
Mean motion
3.81732 °/min
Orbital period
94.31 mins
BSTAR
0.0012044
Loading maneuver chart data...
Computing Atmospheric mass density...
Loading historical data...
Loading historical data...
Loading historical data...
Loading historical data...
Loading historical data...
Loading historical data...
Loading historical data...

Documentation

Showing up to 5 results
|